Lambertville, MI

1:25 AM EDT on April 30, 2017 (GMT -0400)
Lambertville

Weather History for KDUH - November, 2012

Change the Weather History Date:

Saturday, November 17, 2012

  Actual Average (KTOL) Record (KTOL)
Temperature  
Mean Temperature 38 °F -  
Max Temperature 51 °F 48 °F 71 °F (1931)
Min Temperature 25 °F 31 °F 10 °F (1959)
Degree Days  
Heating Degree Days 27    
Moisture  
Dew Point 31 °F    
Average Humidity 79    
Maximum Humidity 93    
Minimum Humidity 54    
Precipitation  
Precipitation 0.00 in - - ()
Sea Level Pressure  
Sea Level Pressure 30.56 in    
Wind  
Wind Speed 1 mph (East)    
Max Wind Speed 7 mph    
Max Gust Speed -    
Visibility 5 miles    
Events Fog    
Averages and records for this station are not official NWS values.
T = Trace of Precipitation, MM = Missing Value Source: NWS Daily Summary

Daily Weather History Graph

Daily Weather History Graph

Search for Another Location

Airport or City:

Trip Planner

Search our weather history database for the weather conditions in past years. The results will help you decide how hot, cold, wet, or windy it might be!

Date:

Astronomy

Nov. 17, 2012 Rise Set
Actual Time 7:26 AM EST 5:12 PM EST
Civil Twilight 6:56 AM EST 5:42 PM EST
Nautical Twilight 6:22 AM EST 6:15 PM EST
Astronomical Twilight 5:50 AM EST 6:48 PM EST
Moon 11:10 AM EST (11/17) 9:21 PM EST (11/17)
Length of Visible Light 10h 45m
Length of Day
9h 45m
Waxing Crescent, 20% of the Moon is Illuminated
Nov 17
Waxing Crescent
Nov 20
First Quarter
Nov 28
Full
Dec 6
Last Quarter
Dec 13
New

Hourly Weather History & Observations

Time (EST) Temp. Windchill Dew Point Humidity Pressure Visibility Wind Dir Wind Speed Gust Speed Precip Events Conditions
12:15 AM 29.5 °F - 25.5 °F 85% 30.51 in 7.0 mi Calm Calm - N/A   Clear
12:35 AM 28.9 °F - 25.0 °F 85% 30.51 in 5.0 mi Calm Calm - N/A   Clear
12:55 AM 28.0 °F - 24.4 °F 86% 30.51 in 5.0 mi Calm Calm - N/A   Clear
1:15 AM 28.2 °F - 24.4 °F 86% 30.51 in 5.0 mi Calm Calm - N/A   Clear
1:35 AM 28.4 °F - 24.8 °F 86% 30.51 in 5.0 mi Calm Calm - N/A   Clear
1:55 AM 27.7 °F - 24.1 °F 86% 30.52 in 2.0 mi Calm Calm - N/A   Clear
2:15 AM 27.1 °F - 23.5 °F 86% 30.52 in 3.0 mi Calm Calm - N/A   Clear
2:35 AM 28.0 °F - 24.3 °F 86% 30.52 in 4.0 mi Calm Calm - N/A   Clear
2:55 AM 27.5 °F - 23.9 °F 86% 30.53 in 4.0 mi Calm Calm - N/A   Clear
3:15 AM 27.3 °F - 23.5 °F 86% 30.53 in 5.0 mi Calm Calm - N/A   Clear
3:35 AM 26.6 °F - 23.0 °F 86% 30.53 in 5.0 mi Calm Calm - N/A   Clear
3:55 AM 26.8 °F - 23.0 °F 86% 30.53 in 5.0 mi Calm Calm - N/A   Clear
4:15 AM 26.4 °F - 23.0 °F 87% 30.53 in 5.0 mi Calm Calm - N/A   Clear
4:35 AM 26.6 °F - 23.5 °F 88% 30.54 in 5.0 mi Calm Calm - N/A   Clear
4:55 AM 26.8 °F - 23.4 °F 87% 30.54 in 5.0 mi Calm Calm - N/A   Clear
5:15 AM 26.2 °F - 22.6 °F 86% 30.55 in 5.0 mi Calm Calm - N/A   Clear
5:35 AM 25.3 °F - 22.1 °F 87% 30.55 in 5.0 mi Calm Calm - N/A   Clear
5:55 AM 26.1 °F - 22.6 °F 87% 30.56 in 5.0 mi Calm Calm - N/A   Clear
6:15 AM 25.9 °F - 22.3 °F 86% 30.56 in 5.0 mi Calm Calm - N/A   Clear
6:35 AM 25.9 °F - 22.6 °F 88% 30.56 in 5.0 mi Calm Calm - N/A   Clear
6:55 AM 25.9 °F - 22.6 °F 88% 30.56 in 5.0 mi Calm Calm - N/A   Clear
7:15 AM 26.1 °F - 22.6 °F 87% 30.58 in 5.0 mi Calm Calm - N/A   Clear
7:35 AM 25.9 °F - 22.8 °F 88% 30.58 in 4.0 mi Calm Calm - N/A   Clear
7:55 AM 25.5 °F - 22.3 °F 88% - 4.0 mi Calm Calm - N/A   Clear
8:15 AM 27.7 °F - 24.6 °F 88% 30.61 in 4.0 mi Calm Calm - N/A   Clear
8:35 AM 31.8 °F - 28.8 °F 88% 30.61 in 4.0 mi Calm Calm - N/A   Clear
8:55 AM 34.0 °F - 29.3 °F 83% 30.61 in 5.0 mi Calm Calm - N/A   Haze
9:15 AM 37.0 °F - 31.1 °F 79% 30.60 in 5.0 mi Calm Calm - N/A   Haze
9:35 AM 39.6 °F - 30.0 °F 69% 30.61 in 7.0 mi Calm Calm - N/A   Clear
9:55 AM 41.2 °F - 29.5 °F 63% 30.61 in 7.0 mi Calm Calm - N/A   Clear
10:15 AM 42.8 °F 40.1 °F 29.7 °F 60% 30.61 in 7.0 mi ESE 4.6 mph - N/A   Clear
10:35 AM 44.4 °F 41.2 °F 31.1 °F 60% 30.61 in 10.0 mi East 5.8 mph - N/A   Clear
10:55 AM 46.0 °F 43.1 °F 32.4 °F 59% 30.61 in 10.0 mi ESE 5.8 mph - N/A   Clear
11:15 AM 47.5 °F - 34.2 °F 60% 30.61 in 10.0 mi East 5.8 mph - N/A   Clear
11:35 AM 48.2 °F - 35.4 °F 61% 30.61 in 10.0 mi ESE 4.6 mph - N/A   Clear
11:55 AM 49.5 °F - 35.6 °F 59% 30.60 in 10.0 mi SE 5.8 mph - N/A   Clear
12:15 PM 50.2 °F - 36.0 °F 58% 30.59 in 7.0 mi SE 4.6 mph - N/A   Clear
12:35 PM 50.4 °F - 36.1 °F 58% 30.58 in 10.0 mi SSE 6.9 mph - N/A   Clear
12:55 PM 50.9 °F - 36.3 °F 57% 30.58 in 10.0 mi SE 5.8 mph - N/A   Clear
1:15 PM 51.1 °F - 34.9 °F 54% 30.57 in 10.0 mi ESE 5.8 mph - N/A   Clear
1:35 PM 51.4 °F - 36.1 °F 56% 30.56 in 10.0 mi East 4.6 mph - N/A   Clear
1:55 PM 51.4 °F - 38.1 °F 60% 30.56 in 10.0 mi ENE 5.8 mph - N/A   Clear
2:15 PM 51.6 °F - 38.7 °F 61% 30.56 in 10.0 mi East 5.8 mph - N/A   Clear
2:35 PM 51.4 °F - 39.4 °F 63% 30.55 in 7.0 mi East 6.9 mph - N/A   Clear
2:55 PM 50.4 °F - 39.9 °F 67% 30.55 in 7.0 mi East 6.9 mph - N/A   Clear
3:15 PM 50.2 °F - 39.6 °F 67% 30.55 in 7.0 mi East 6.9 mph - N/A   Clear
3:35 PM 50.0 °F - 39.2 °F 66% 30.55 in 7.0 mi East 4.6 mph - N/A   Clear
3:55 PM 49.8 °F - 38.3 °F 65% 30.55 in 5.0 mi East 5.8 mph - N/A   Haze
4:15 PM 48.6 °F - 38.1 °F 67% 30.55 in 5.0 mi ENE 5.8 mph - N/A   Haze
4:35 PM 47.7 °F - 37.8 °F 69% 30.55 in 3.0 mi NE 4.6 mph - N/A   Haze
4:55 PM 46.2 °F - 36.5 °F 69% 30.55 in 2.5 mi Calm Calm - N/A   Haze
5:15 PM 44.6 °F - 36.0 °F 72% 30.55 in 2.0 mi Calm Calm - N/A   Haze
5:35 PM 43.5 °F - 36.3 °F 76% 30.55 in 7.0 mi Calm Calm - N/A   Clear
5:55 PM 42.6 °F 39.9 °F 36.1 °F 78% 30.55 in 5.0 mi ENE 4.6 mph - N/A   Haze
6:15 PM 42.1 °F - 35.6 °F 78% 30.55 in 5.0 mi Calm Calm - N/A   Haze
6:35 PM 39.6 °F 37.4 °F 34.7 °F 83% 30.54 in 4.0 mi East 3.5 mph - N/A   Haze
6:55 PM 38.7 °F - 34.7 °F 86% 30.55 in 4.0 mi Calm Calm - N/A   Clear
7:15 PM 39.4 °F - 35.4 °F 86% 30.55 in 4.0 mi Calm Calm - N/A   Clear
7:35 PM 38.7 °F - 35.4 °F 88% 30.55 in 3.0 mi Calm Calm - N/A   Clear
7:55 PM 38.1 °F - 34.9 °F 88% 30.55 in 2.5 mi Calm Calm - N/A   Clear
8:15 PM 36.7 °F - 34.0 °F 90% 30.55 in 1.8 mi Calm Calm - N/A   Mist
8:35 PM 35.4 °F - 33.1 °F 91% 30.55 in 1.2 mi Calm Calm - N/A   Mist
8:55 PM 35.6 °F 31.7 °F 33.4 °F 92% 30.55 in 1.2 mi ESE 4.6 mph - N/A   Mist
9:15 PM 37.6 °F 35.1 °F 35.6 °F 93% 30.55 in 1.2 mi East 3.5 mph - N/A   Mist
9:55 PM 38.5 °F - 36.5 °F 93% 30.54 in 0.8 mi Calm Calm - N/A   Mist
10:15 PM 37.0 °F - 34.9 °F 92% 30.54 in 0.2 mi Calm Calm - N/A Fog Fog
10:35 PM 36.9 °F - 34.9 °F 93% 30.54 in 0.2 mi Calm Calm - N/A Fog Fog
10:55 PM 36.0 °F 33.3 °F 34.2 °F 93% 30.54 in 0.2 mi ESE 3.5 mph - N/A Fog Fog
11:15 PM 37.4 °F - 35.6 °F 93% 30.54 in 0.2 mi Calm Calm - N/A Fog Fog
11:35 PM 36.1 °F 33.5 °F 34.3 °F 93% 30.54 in 0.2 mi ESE 3.5 mph - N/A Fog Fog
11:55 PM 36.9 °F - 35.1 °F 93% 30.53 in 0.5 mi Calm Calm - N/A Fog Fog